Location: Prague
(50.0830°N, 14.4670°E)
Time: 11:08:23
(UTC+02:00)

EO-79 - Visible Passes

Search period start: 14 April 2024 00:00
Search period end: 24 April 2024 00:00
Orbit: 564 x 579 km, 98.0° (Epoch: 13 April)

Date Brightness Start Highest point End Pass type
(mag) Time Alt. Az. Time Alt. Az. Time Alt. Az.
14 Apr ? 04:18:27 10° NNE 04:22:34 85° ESE 04:25:10 22° SSW visible
15 Apr ? 02:48:36 10° ENE 02:49:15 10° E 02:49:54 10° E visible
15 Apr ? 04:20:54 10° NNE 04:25:01 90° ESE 04:27:45 20° SSW visible
16 Apr ? 02:50:35 10° ENE 02:51:42 11° E 02:52:49 10° ESE visible
16 Apr ? 04:23:18 10° NNE 04:27:25 86° WNW 04:30:19 19° SSW visible
17 Apr ? 02:52:42 10° ENE 02:54:08 12° E 02:55:34 10° ESE visible
17 Apr ? 04:25:43 10° NNE 04:29:49 82° WNW 04:32:53 17° SSW visible
18 Apr ? 02:54:52 10° ENE 02:56:33 12° E 02:58:13 10° ESE visible
18 Apr ? 04:28:06 10° NNE 04:32:13 78° WNW 04:35:25 16° SSW visible
19 Apr ? 02:57:04 10° ENE 02:58:56 13° E 03:00:50 10° ESE visible
19 Apr ? 04:30:28 10° N 04:34:34 74° WNW 04:37:56 15° SSW visible
20 Apr ? 02:59:16 10° ENE 03:01:20 13° E 03:03:23 10° ESE visible
20 Apr ? 04:32:49 10° N 04:36:56 71° WNW 04:40:26 14° SSW visible
21 Apr ? 03:01:28 10° NE 03:03:41 14° E 03:05:54 10° ESE visible
21 Apr ? 04:35:10 10° N 04:39:16 67° WNW 04:42:54 13° SSW visible
22 Apr ? 03:03:40 10° NE 03:06:02 15° E 03:08:24 10° SE visible
22 Apr ? 04:37:29 10° N 04:41:34 64° WNW 04:45:21 12° SSW visible
23 Apr ? 03:05:51 10° NE 03:08:22 16° E 03:10:51 10° SE visible
23 Apr ? 04:39:48 10° N 04:43:52 61° WNW 04:47:48 11° SSW visible
